Weather in Risan

Montenegro     42°30′53″N   18°41′57″E
temp.,
°C
wind,
m/s
gust,
m/s
humid.,
%
clouds,
%
prec.,
mm/h
press.,
hPa
HPBL,
m
20 january, wed
wed2001:00−1nne128738 0.0 102827
04:00−1ne2290100 0.0 102845
07:000ne228895 0.0 102839
10:00+2e127797 0.0 1028147
13:00+2e128798 0.3 1026144
16:00+1e1296100 0.4 102641
19:00+2se1297100 0.8 102552
22:00+2ese2297100 0.3 102651
21 january, thu
thu2101:00+2se1298100 0.8 102446
04:00+2ese2297100 0.6 102360
07:00+3e1295100 0.6 102236
10:00+5e228873 0.0 1022203
13:00+7se248360 0.1 1021627
16:00+5e229287 0.1 102184
19:00+4ene229780 0.1 102146
22:00+5sse2799100 0.8 1020294
22 january, fri
fri2201:00+6sse3799100 2.4 1019338
04:00+5sse259999 0.8 1017173
07:00+6se249896 1.9 1017165
10:00+6s3797100 3.4 1016401
13:00+7sse3896100 6.9 1014440
16:00+8s369499 2.3 1013404
19:00+7s5109899 5.1 1012803
22:00+7ssw4799100 5.2 1011474
23 january, sat
sat2301:00+7ssw51099100 15.9 1010660
04:00+7ssw51498100 11.4 10071284
07:00+7s71794100 17.7 10051496
10:00+8s81994100 4.8 10031632
13:00+7sw71498100 15.8 10001277
16:00+7sw51290100 3.5 10011293
19:00+6ssw4891100 5.0 1004623
22:00+6ssw4892100 3.9 1003669
24 january, sun
sun2401:00+5sw4999100 17.9 1001932
04:00+5sw51197100 9.8 9991030
07:00+4wsw41097100 13.6 10011091
10:00+4ssw2492100 4.4 1004464
13:00+5sw358899 6.6 1005611
16:00+4ssw2488100 1.1 1006273
19:00+2ese229067 1.6 100733
22:00+4s3695100 1.3 1005457